Weather History for KWRI - December, 2013

Change the Weather History Date:

Thursday, December 26, 2013

  Actual Average Record
Temperature  
Mean Temperature 30 °F -  
Max Temperature 40 °F 40 °F 55 °F (2006)
Min Temperature 21 °F 24 °F 5 °F (1998)
Degree Days  
Heating Degree Days 34    
Moisture  
Dew Point 20 °F    
Average Humidity 74    
Maximum Humidity 87    
Minimum Humidity 52    
Precipitation  
Precipitation 0.00 in - - ()
Sea Level Pressure  
Sea Level Pressure 30.29 in    
Wind  
Wind Speed 2 mph (WSW)    
Max Wind Speed 13 mph    
Max Gust Speed 21 mph    
Visibility 10 miles    
Events      
Averages and records for this station are not official NWS values.
T = Trace of Precipitation, MM = Missing Value Source: NWS Daily Summary

Daily Weather History Graph

Daily Weather History Graph

Search for Another Location

Airport or City:

Trip Planner

Search our weather history database for the weather conditions in past years. The results will help you decide how hot, cold, wet, or windy it might be!

Date:

Astronomy

Dec. 26, 2013 Rise Set
Actual Time 7:18 AM EST 4:39 PM EST
Civil Twilight 6:48 AM EST 5:09 PM EST
Nautical Twilight 6:14 AM EST 5:44 PM EST
Astronomical Twilight 5:41 AM EST 6:17 PM EST
Moon 12:45 AM EST (12/26) 12:13 PM EST (12/26)
Length of Visible Light 10h 21m
Length of Day
9h 20m
Last Quarter, 38% of the Moon is Illuminated
Dec 26
Last Quarter
Jan 1
New
Jan 7
First Quarter
Jan 15
Full
Jan 24
Last Quarter

Hourly Weather History & Observations

Time (EST) Temp. Windchill Dew Point Humidity Pressure Visibility Wind Dir Wind Speed Gust Speed Precip Events Conditions
12:58 AM 22.8 °F - 17.1 °F 79% 30.40 in 10.0 mi Calm Calm - N/A   Clear
1:40 AM 21.2 °F - 15.8 °F 80% 30.38 in 10.0 mi Calm Calm - N/A   Mostly Cloudy
1:43 AM 21.2 °F - 17.6 °F 86% 30.38 in 10.0 mi Calm Calm - N/A   Mostly Cloudy
1:58 AM 21.7 °F - 16.5 °F 80% 30.40 in 10.0 mi Calm Calm - N/A   Mostly Cloudy
2:43 AM 21.2 °F - 17.6 °F 86% 30.37 in 10.0 mi Calm Calm - N/A   Mostly Cloudy
2:58 AM 22.6 °F - 18.7 °F 85% 30.39 in 10.0 mi Calm Calm - N/A   Overcast
3:40 AM 21.2 °F - 17.6 °F 86% 30.34 in 10.0 mi Calm Calm - N/A   Scattered Clouds
3:58 AM 21.7 °F - 18.3 °F 87% 30.35 in 10.0 mi Calm Calm - N/A   Scattered Clouds
4:31 AM 23.0 °F - 17.6 °F 80% 30.32 in 10.0 mi Calm Calm - N/A   Overcast
4:58 AM 23.4 °F - 19.0 °F 84% 30.31 in 10.0 mi Calm Calm - N/A   Overcast
5:01 AM 23.0 °F - 19.4 °F 86% 30.31 in 10.0 mi Calm Calm - N/A   Overcast
5:58 AM 23.2 °F - 18.5 °F 82% 30.28 in 10.0 mi Calm Calm - N/A   Mostly Cloudy
6:01 AM 23.0 °F - 19.4 °F 86% 30.28 in 10.0 mi Calm Calm - N/A   Mostly Cloudy
6:16 AM 23.0 °F - 19.4 °F 86% 30.29 in 10.0 mi WNW 2.3 mph - N/A   Overcast
6:31 AM 24.8 °F - 19.4 °F 80% 30.28 in 10.0 mi East 1.2 mph - N/A   Overcast
6:58 AM 24.3 °F - 20.1 °F 84% 30.30 in 10.0 mi Calm Calm - N/A   Overcast
7:58 AM 25.7 °F 21.5 °F 20.7 °F 81% 30.29 in 10.0 mi NNW 3.5 mph - N/A   Overcast
8:58 AM 28.6 °F - 22.5 °F 78% 30.29 in 10.0 mi North 2.3 mph - N/A   Overcast
9:16 AM 30.2 °F - 21.2 °F 69% 30.27 in 10.0 mi NNE 2.3 mph - N/A   Overcast
9:58 AM 30.9 °F 26.2 °F 21.7 °F 69% 30.30 in 10.0 mi West 4.6 mph - N/A   Overcast
10:34 AM 32.0 °F 28.7 °F 23.0 °F 69% 30.26 in 10.0 mi Variable 3.5 mph - N/A   Overcast
10:58 AM 32.7 °F 27.3 °F 22.5 °F 66% 30.27 in 10.0 mi WSW 5.8 mph - N/A   Mostly Cloudy
11:46 AM 32.0 °F 25.6 °F 21.2 °F 64% 30.21 in 10.0 mi SW 6.9 mph - N/A   Scattered Clouds
11:56 AM 32.0 °F 25.6 °F 21.2 °F 64% 30.20 in 10.0 mi SSW 6.9 mph - N/A   Mostly Cloudy
11:58 AM 33.4 °F 26.6 °F 20.3 °F 59% 30.22 in 10.0 mi SSW 8.1 mph - 0.00 in   Mostly Cloudy
12:58 PM 36.7 °F 28.4 °F 20.7 °F 52% 30.21 in 10.0 mi WSW 12.7 mph - 0.00 in   Mostly Cloudy
1:58 PM 39.0 °F 33.4 °F 22.5 °F 52% 30.19 in 10.0 mi WSW 8.1 mph - N/A   Clear
2:58 PM 40.8 °F 34.1 °F 24.4 °F 52% 30.20 in 10.0 mi West 11.5 mph 20.7 mph N/A   Clear
3:58 PM 39.4 °F 33.8 °F 24.6 °F 56% 30.22 in 10.0 mi West 8.1 mph - N/A   Scattered Clouds
4:58 PM 37.0 °F 31.0 °F 21.9 °F 54% 30.24 in 10.0 mi West 8.1 mph - N/A   Clear
5:58 PM 34.7 °F 29.6 °F 21.6 °F 59% 30.26 in 10.0 mi West 5.8 mph - N/A   Clear
6:58 PM 32.2 °F 27.7 °F 21.7 °F 65% 30.27 in 10.0 mi WSW 4.6 mph - N/A   Clear
7:58 PM 28.2 °F 23.1 °F 20.7 °F 73% 30.29 in 10.0 mi South 4.6 mph - N/A   Clear
8:58 PM 25.5 °F 21.3 °F 20.8 °F 82% 30.29 in 10.0 mi South 3.5 mph - N/A   Clear
9:58 PM 27.9 °F 21.5 °F 21.0 °F 75% 30.31 in 10.0 mi WSW 5.8 mph - N/A   Clear
10:58 PM 29.7 °F 23.7 °F 21.4 °F 71% 30.32 in 10.0 mi West 5.8 mph - N/A   Clear
11:58 PM 26.6 °F 21.2 °F 20.5 °F 78% 30.32 in 10.0 mi WSW 4.6 mph - N/A   Clear